Weather History for Grand Canyon, AZ

Change the Weather History Date:

Friday, April 26, 2013

  Actual Average Record
Temperature  
Mean Temperature 46 °F -  
Max Temperature 68 °F 60 °F 75 °F (2001)
Min Temperature 24 °F 25 °F 9 °F (1984)
Degree Days  
Heating Degree Days 19    
Moisture  
Dew Point 11 °F    
Average Humidity 33    
Maximum Humidity 69    
Minimum Humidity 7    
Precipitation  
Precipitation 0.00 in - - ()
Sea Level Pressure  
Sea Level Pressure 30.15 in    
Wind  
Wind Speed 2 mph (WNW)    
Max Wind Speed 12 mph    
Max Gust Speed 23 mph    
Visibility 10 miles    
Events      
Averages and records for this station are not official NWS values.
T = Trace of Precipitation, MM = Missing Value Source: NWS Daily Summary

Daily Weather History Graph

Daily Weather History Graph

Search for Another Location

Airport:

Trip Planner

Search our weather history database for the weather conditions in past years. The results will help you decide how hot, cold, wet, or windy it might be!

Date:

Astronomy

Apr. 26, 2013 Rise Set
Actual Time 5:41 AM MST 7:11 PM MST
Civil Twilight 5:14 AM MST 7:38 PM MST
Nautical Twilight 4:41 AM MST 8:11 PM MST
Astronomical Twilight 4:07 AM MST 8:45 PM MST
Moon 8:36 PM MST (4/26) 6:13 AM MST (4/26)
Length of Visible Light 14h 24m
Length of Day
13h 30m
Full, 99% of the Moon is Illuminated
Apr 26
Full
May 2
Last Quarter
May 9
New
May 17
First Quarter
May 24
Full

Hourly Weather History & Observations

Time (MST) Temp. Windchill Dew Point Humidity Pressure Visibility Wind Dir Wind Speed Gust Speed Precip Events Conditions
12:54 AM 28.0 °F - 14.0 °F 56% 30.07 in 10.0 mi Calm Calm - N/A   Clear
1:54 AM 26.1 °F - 14.0 °F 60% 30.11 in 10.0 mi Calm Calm - N/A   Clear
2:54 AM 25.0 °F - 14.0 °F 63% 30.12 in 10.0 mi Calm Calm - N/A   Clear
3:54 AM 24.1 °F - 14.0 °F 65% 30.13 in 10.0 mi Calm Calm - N/A   Clear
4:54 AM 24.1 °F - 15.1 °F 69% 30.14 in 10.0 mi Calm Calm - N/A   Clear
5:54 AM 24.1 °F - 15.1 °F 69% 30.16 in 9.0 mi Calm Calm - N/A   Clear
6:54 AM 32.0 °F - 19.0 °F 59% 30.18 in 8.0 mi Calm Calm - N/A   Clear
7:54 AM 50.0 °F - 26.1 °F 39% 30.16 in 10.0 mi WSW 6.9 mph - N/A   Clear
8:54 AM 55.9 °F - 21.9 °F 27% 30.15 in 10.0 mi Calm Calm - N/A   Clear
9:54 AM 59.0 °F - 18.0 °F 20% 30.15 in 10.0 mi Variable 5.8 mph - N/A   Clear
10:54 AM 63.0 °F - 16.0 °F 16% 30.15 in 10.0 mi Calm Calm - N/A   Clear
11:54 AM 64.9 °F - 14.0 °F 14% 30.15 in 10.0 mi Variable 5.8 mph 19.6 mph N/A   Clear
12:54 PM 66.9 °F - 10.0 °F 11% 30.14 in 10.0 mi West 8.1 mph 23.0 mph N/A   Clear
1:54 PM 66.0 °F - 3.0 °F 8% 30.16 in 10.0 mi SW 8.1 mph 17.3 mph N/A   Scattered Clouds
2:54 PM 66.9 °F - 7.0 °F 10% 30.14 in 10.0 mi NW 11.5 mph 19.6 mph N/A   Partly Cloudy
3:54 PM 68.0 °F - 1.0 °F 7% 30.14 in 10.0 mi NNW 11.5 mph 18.4 mph N/A   Scattered Clouds
4:54 PM 66.0 °F - 1.0 °F 8% 30.14 in 10.0 mi NW 9.2 mph 18.4 mph N/A   Clear
5:54 PM 64.0 °F - 5.0 °F 10% 30.16 in 10.0 mi Variable 5.8 mph - N/A   Clear
6:54 PM 60.1 °F - 5.0 °F 11% 30.15 in 10.0 mi Calm Calm - N/A   Clear
7:54 PM 41.0 °F - 9.0 °F 27% 30.17 in 10.0 mi Calm Calm - N/A   Clear
8:54 PM 37.9 °F 35.5 °F 9.0 °F 30% 30.19 in 10.0 mi NE 3.5 mph - N/A   Clear
9:54 PM 34.0 °F - 8.1 °F 34% 30.19 in 10.0 mi Calm Calm - N/A   Clear
10:54 PM 32.0 °F - 7.0 °F 35% 30.19 in 10.0 mi Calm Calm - N/A   Clear
11:54 PM 28.9 °F - 6.1 °F 38% 30.20 in 10.0 mi Calm Calm - N/A   Clear